Regional Weather Roundup
Issued by NWS Midland/Odessa, TX

Skip options and go directly to product.
Home | Oldest Version | Previous Version | Current Version | All | Graphics & Text | Save Text | Print | Product List | Glossary On

Skip product version selection by date and time.   
643
ASUS44 KMAF 130701
RWRMAF
MIDLAND AREA WEATHER ROUNDUP
NATIONAL WEATHER SERVICE MIDLAND TX
100 AM CST SAT FEB 13 2016

...IN SOUTHWEST TEXAS AND SOUTHEAST NEW MEXICO...

CITY           SKY/WX    TMP DP  RH WIND       PRES   REMARKS
ALPINE         CLOUDY    42  21  44 W6        30.38F WCI  38
ANDREWS        FAIR      43  30  59 E7        30.32S WCI  39
ARTESIA        CLOUDY    43  25  49 CALM      30.31S
BIG SPRING     CLEAR     50  31  47 E3        30.34R
CARLSBAD       CLOUDY    36  25  64 W3        30.29S
DRYDEN           N/A     57  27  31 N12       30.24F
FORT STOCKTON  CLEAR     48  25  40 S7        30.29S
GUAD PASS      CLOUDY    50  15  24 NE20      30.34F
HOBBS          CLOUDY    41  27  56 CALM      30.33F
MARFA          CLOUDY    33  17  51 N8        30.35F WCI  26
MIDLAND AIRPK  CLEAR     46  32  58 E5        30.33S
MIDLAND INTL   CLEAR     46  31  55 E6        30.31S
ODESSA         CLEAR     42  30  62 E9        30.32R WCI  37
PECOS          CLOUDY    47  27  46 NE3       30.27F
PRESIDIO       FAIR      59  16  18 MISG      30.24S
SEMINOLE       CLEAR     41  29  62 E5        30.34S WCI  38
SNYDER           N/A     48  34  57 E7        30.34R
WINK           CLEAR     42  28  57 N7        30.28S WCI  38
$$
...OTHER STATIONS IN TEXAS...

CITY           SKY/WX    TMP DP  RH WIND       PRES   REMARKS
ABILENE        CLEAR     47  34  60 SE7       30.33S
AMARILLO       CLOUDY    35  30  82 SE10      30.35S WCI  27
AUSTIN         CLEAR     49  39  68 N7        30.29S
BROWNSVILLE    CLEAR     57  57 100 SE6       30.25F
CORPUS CHRISTI PTCLDY    53  51  93 CALM      30.25S
DALLAS FTW     CLEAR     48  32  53 N10       30.37R
DEL RIO        CLEAR     56  37  49 S3        30.24R
EL PASO        PTCLDY    47  14  26 N3        30.26S
HOUSTON INT    PTCLDY    57  55  93 CALM      30.27F
LUBBOCK        CLOUDY    38  30  73 E9        30.34S WCI  31
SAN ANGELO     CLEAR     44  31  60 N7        30.31S
SAN ANTONIO    CLEAR     57  43  59 E3        30.28S
WACO           PTCLDY    46  35  65 CALM      30.33S
WICHITA FALLS  NOT AVBL
$$
...OTHER LOCATIONS IN NEW MEXICO...

CITY           SKY/WX    TMP DP  RH WIND       PRES   REMARKS
ALAMAGORDO     CLOUDY    45   7  21 W5        30.28F
ALBUQUERQUE    CLOUDY    46  20  35 NE7       30.32F
CANNON AFB     CLOUDY    38  25  58 SE5       30.34S WCI  35
CLOVIS         CLOUDY    36  23  60 SE3       30.35S
HOLLOMAN AFB   CLOUDY    37   7  28 NE3       30.27S
ROSWELL        CLOUDY    38  23  55 CALM      30.31S
RUIDOSO          N/A     45  14  29 CALM      30.40S
SANTA FE       CLOUDY    34  21  59 N7        30.35S WCI  28
TRUTH OR CONSE CLEAR     45   6  20 W12       30.29F WCI  39
TUCUMCARI      CLOUDY    45  25  45 S6        30.31S
$$

USA.gov is the U.S. government's official web portal to all federal, state and local government web resources and services.